Santa Ana, CA

7:18 PM PDT on June 23, 2017 (GMT -0700)
John Wayne-Orange County

Weather History for KSNA - October, 2012

Change the Weather History Date:

Monday, October 8, 2012

  Actual Average Record
Temperature  
Mean Temperature 73 °F 68 °F  
Max Temperature 78 °F 76 °F 93 °F (1999)
Min Temperature 67 °F 60 °F 52 °F (2011)
Degree Days  
Heating Degree Days 0 0  
Month to date heating degree days 0 0  
Since 1 July heating degree days 0 1  
Cooling Degree Days 8 3  
Month to date cooling degree days 75 31  
Year to date cooling degree days 1165 799  
Growing Degree Days 22 (Base 50)    
Moisture  
Dew Point 60 °F    
Average Humidity 69    
Maximum Humidity 81    
Minimum Humidity 56    
Precipitation  
Precipitation 0.00 in 0.02 in 0.03 in (1974)
Month to date precipitation 0.00 0.08  
Year to date precipitation 4.03 9.33  
Since 1 July precipitation 0.16  
Snow  
Snow 0.00 in - - ()
Month to date snowfall 0.0  
Year to date snowfall 0.0  
Snow Depth 0.00 in    
Sea Level Pressure  
Sea Level Pressure 29.95 in    
Wind  
Wind Speed 4 mph (South)    
Max Wind Speed 13 mph    
Max Gust Speed 16 mph    
Visibility 10 miles    
Events      
T = Trace of Precipitation, MM = Missing Value Source: NWS Daily Summary

Daily Weather History Graph

Daily Weather History Graph

Search for Another Location

Airport or City:

Trip Planner

Search our weather history database for the weather conditions in past years. The results will help you decide how hot, cold, wet, or windy it might be!

Date:

Astronomy

Oct. 08, 2012 Rise Set
Actual Time 6:51 AM PDT 6:25 PM PDT
Civil Twilight 6:26 AM PDT 6:50 PM PDT
Nautical Twilight 5:57 AM PDT 7:19 PM PDT
Astronomical Twilight 5:28 AM PDT 7:48 PM PDT
Moon No Moon Rise 2:01 PM PDT (10/8)
Length of Visible Light 12h 24m
Length of Day
11h 34m
Last Quarter, 45% of the Moon is Illuminated
Oct 8
Last Quarter
Oct 15
New
Oct 21
First Quarter
Oct 29
Full
Nov 6
Last Quarter

Hourly Weather History & Observations

Time (PDT) Temp. Dew Point Humidity Pressure Visibility Wind Dir Wind Speed Gust Speed Precip Events Conditions
12:53 AM 68.0 °F 63.0 °F 84% 29.93 in 9.0 mi Calm Calm - N/A   Clear
1:53 AM 66.9 °F 61.0 °F 81% 29.93 in 10.0 mi Calm Calm - N/A   Clear
2:43 AM 66.2 °F 60.8 °F 83% 29.94 in 10.0 mi Calm Calm - N/A   Mostly Cloudy
2:53 AM 66.9 °F 61.0 °F 81% 29.94 in 10.0 mi Calm Calm - N/A   Overcast
3:53 AM 68.0 °F 61.0 °F 78% 29.93 in 10.0 mi Calm Calm - N/A   Overcast
4:53 AM 68.0 °F 61.0 °F 78% 29.93 in 10.0 mi ESE 3.5 mph - N/A   Overcast
5:53 AM 69.1 °F 61.0 °F 75% 29.94 in 10.0 mi Calm Calm - N/A   Mostly Cloudy
6:53 AM 69.1 °F 59.0 °F 70% 29.95 in 10.0 mi Calm Calm - N/A   Mostly Cloudy
7:16 AM 69.8 °F 59.0 °F 68% 29.96 in 10.0 mi SE 4.6 mph - N/A   Scattered Clouds
7:49 AM 69.8 °F 60.8 °F 73% 29.97 in 10.0 mi ESE 3.5 mph - N/A   Mostly Cloudy
7:53 AM 70.0 °F 60.1 °F 71% 29.97 in 10.0 mi ESE 3.5 mph - N/A   Mostly Cloudy
8:53 AM 72.0 °F 60.1 °F 66% 29.97 in 10.0 mi East 4.6 mph - N/A   Mostly Cloudy
9:53 AM 72.0 °F 60.1 °F 66% 29.97 in 10.0 mi Calm Calm - N/A   Mostly Cloudy
10:53 AM 73.9 °F 60.1 °F 62% 29.97 in 10.0 mi SW 8.1 mph - N/A   Mostly Cloudy
11:53 AM 75.9 °F 60.1 °F 58% 29.96 in 10.0 mi SSW 9.2 mph - N/A   Mostly Cloudy
12:09 PM 75.2 °F 60.8 °F 61% 29.96 in 10.0 mi Variable 6.9 mph - N/A   Scattered Clouds
12:53 PM 75.9 °F 61.0 °F 60% 29.95 in 10.0 mi SW 9.2 mph - N/A   Scattered Clouds
1:53 PM 77.0 °F 61.0 °F 58% 29.93 in 10.0 mi SSW 8.1 mph - N/A   Partly Cloudy
2:53 PM 75.9 °F 60.1 °F 58% 29.93 in 10.0 mi Variable 6.9 mph - N/A   Scattered Clouds
3:53 PM 75.9 °F 60.1 °F 58% 29.93 in 10.0 mi SSW 10.4 mph - N/A   Partly Cloudy
4:53 PM 73.9 °F 60.1 °F 62% 29.92 in 10.0 mi SSW 10.4 mph - N/A   Clear
5:53 PM 72.0 °F 60.1 °F 66% 29.93 in 10.0 mi SSW 8.1 mph - N/A   Clear
6:53 PM 71.1 °F 59.0 °F 66% 29.93 in 10.0 mi WSW 3.5 mph - N/A   Clear
7:53 PM 70.0 °F 60.1 °F 71% 29.95 in 10.0 mi West 3.5 mph - N/A   Clear
8:53 PM 70.0 °F 61.0 °F 73% 29.96 in 10.0 mi Calm Calm - N/A   Clear
9:53 PM 69.1 °F 60.1 °F 73% 29.97 in 10.0 mi Calm Calm - N/A   Clear
10:53 PM 69.1 °F 59.0 °F 70% 29.97 in 10.0 mi Calm Calm - N/A   Clear
11:53 PM 66.9 °F 59.0 °F 76% 29.97 in 10.0 mi ESE 3.5 mph - N/A   Partly Cloudy